Regional Weather Roundup
Issued by NWS Spokane, WA

Home | Current Version | Previous Version | Text Only | Print | Product List | Glossary On
Versions: 1 2 3 4 5 6 7 8 9 10 11 12 13 14 15 16 17 18 19 20 21 22 23 24 25 26 27 28 29 30 31 32 33 34 35 36 37 38 39 40 41 42 43 44 45 46 47 48 49 50
000
NZUS01 KOTX 040800
RWROTX
EASTERN WASHINGTON/NORTHERN IDAHO ROUNDUP
NATIONAL WEATHER SERVICE, SPOKANE WA
100 AM PDT MON MAY 04 2015

Note: "fair" indicated few or no clouds below 12,000 feet with no
significant weather and/or obstructions to visibility.

...NORTHEAST WASHINGTON AND NORTHERN IDAHO PANHANDLE...

CITY           SKY/WX    TMP DP  RH WIND       PRES   REMARKS
SPOKANE INTL   CLEAR     45  29  53 SW3       29.88S
SPOKANE DOWNTO CLEAR     44  32  62 NE3       29.90R
COEUR D ALENE  CLEAR     37  28  70 CALM      29.91S
DEER PARK      CLEAR     38  31  76 CALM      29.89S

...SOUTHEAST WASHINGTON AND SOUTHERN IDAHO PANHANDLE...

CITY           SKY/WX    TMP DP  RH WIND       PRES   REMARKS
WALLA WALLA    CLEAR     52  35  52 E7        29.85S
PULLMAN/MOSCOW CLEAR     38  29  70 CALM      29.90S
LOWELL           N/A     44  37  76 N3        29.93R

...COLUMBIA BASIN...

CITY           SKY/WX    TMP DP  RH WIND       PRES   REMARKS
EPHRATA        CLEAR     49  31  49 N5        29.85S
MOSES LAKE     CLEAR     47  32  56 N3        29.86S
TRI CITIES     CLEAR     43  39  86 N7        29.85S
HERMISTON      CLEAR     46  33  60 SE5       29.84S
PENDLETON      CLEAR     48  34  58 SE13      29.85F

...EAST SLOPES CASCADES...

CITY           SKY/WX    TMP DP  RH WIND       PRES   REMARKS
THE DALLES     CLEAR     50  36  58 E6        29.85R
YAKIMA         CLEAR     45  35  68 W7        29.86S
ELLENSBURG     CLEAR     51  32  48 CALM      29.87S
WENATCHEE      CLEAR     57  30  35 N5        29.85S
OMAK           CLEAR     48  31  51 W8        29.87S

...SOUTHERN BRITISH COLUMBIA...

CITY           SKY/WX    TMP DP  RH WIND       PRES   REMARKS

...WESTERN MONTANA...

CITY           SKY/WX    TMP DP  RH WIND       PRES   REMARKS
MISSOULA       CLEAR     38  23  55 CALM      29.93S

...NEIGHBORING CITIES...

CITY           SKY/WX    TMP DP  RH WIND       PRES   REMARKS
SEATTLE        CLEAR     53  37  55 CALM      29.89R



USA.gov is the U.S. government's official web portal to all federal, state and local government web resources and services.